[[{"header":{"parameterUnit":"m.s-1","parameterCategory":1,"la1":30.2991,"la2":30.254,"lo1":-89.0895,"lo2":-89.0444,"dy":0.0017,"dx":0.0017,"nx":28,"ny":28,"refTime":"2025-08-29T21:00:00:Z","depth":0,"parameterNumber":2,"parameterNumberName":"U-component_of_WINDS"},"data":[0,0,0,0,0,0,0,0,0,0,0,0,0,0,0,0,0,0,0,0,0,0,0,0,0,0,0,0,0,0,0,0,0,0,0,0,0,0,0,0,0,0,0,0,0,0,0,0,0,0,0,0,0,0,0,0,0,0,-0.981,-0.9811,0,-0.9884,-0.9885,-0.9886,-0.9891,-0.989,-0.9889,-0.9888,-0.9967,-0.997,-0.9973,0,0,0,0,0,0,0,0,0,0,0,0,0,-0.9675,-0.9678,-0.981,-0.9811,-0.9812,-0.9884,-0.9885,-0.9886,-0.9891,-0.989,-0.9889,-0.9888,-0.9966,-0.997,-0.9973,0,0,0,0,0,0,0,0,0,0,0,0,0,-0.974,-0.9679,-0.981,-0.9823,-0.9825,-0.9884,-0.9885,-0.9887,-0.9891,-0.989,-0.9889,-0.9887,-0.9965,-0.9969,-0.9974,-1.0026,0,0,-0.9987,-0.9989,0,0,0,0,0,0,0,0,-0.9736,-0.9745,-0.982,-0.9822,-0.9824,-0.9877,-0.9867,-0.9933,-0.9891,-0.9866,-0.9888,-0.9887,-0.9938,-0.9945,-0.9962,-1.0029,-1.0033,-0.9987,-0.999,-0.9992,-0.9993,0,0,0,0,0,0,0,-0.9732,-0.9742,-0.984,-0.9821,-0.9824,-0.9826,-0.9834,-0.9879,-0.9909,-0.9868,-0.9869,-0.9877,-0.9939,-0.9957,-0.9964,-1.0034,-0.9987,-0.9991,-0.9994,-0.9995,-1.0148,-1.0149,0,0,0,0,0,0,-0.9725,-0.9738,-0.9837,-0.9842,-0.9776,-0.9829,-0.9838,-0.9861,-0.9908,-0.9914,-0.9878,-0.9877,-0.9951,-0.9958,-0.9966,-1.003,-0.9992,-0.9996,-0.9998,-1.0147,-1.0148,-1.015,0,0,0,0,0,0,-0.9722,-0.9733,-0.9834,-0.979,-0.9803,-0.9833,-0.9859,-0.9864,-0.9882,-0.9916,-0.9921,-0.9891,-0.995,-0.996,-1.0011,-1.0033,-0.9998,-1.0002,-1.0145,-1.0147,-1.0149,-1.0158,0,0,0,0,0,0,-0.9718,-0.9732,-0.9752,-0.9791,-0.9805,-0.9877,-0.9861,-0.9866,-0.9889,-0.9888,-0.9929,-0.9935,-0.995,-1.0004,-1.0015,-1.0038,-1.0005,-1.0143,-1.0146,-1.0148,-1.0156,-1.0161,-1.0164,0,0,0,0,0,-0.9713,-0.9753,-0.9753,-0.9765,-0.9831,-0.9878,-0.9887,-0.9902,-0.989,-0.9911,-0.9932,-0.9934,-1.0029,-1.0009,-1.0021,-1.0046,-1.0142,-1.0145,-1.0148,-1.0154,-1.016,-1.0164,0,0,0,0,0,0,-0.9717,-0.9758,-0.9759,-0.9812,-0.9841,-0.9879,-0.9905,-0.9907,-0.9942,-0.994,-0.9958,-0.9968,-1.0017,-1.0037,-1.0015,-1.0099,-1.0084,-1.009,-1.0084,-1.009,-1.0094,-1.0088,-1.0009,0,0,0,0,0,-0.9724,-0.9758,-0.9792,-0.9836,-0.985,-0.9875,-0.9896,-0.9905,-0.9937,-0.995,-0.9975,-1.0007,-1.0044,-1.0068,-1.0104,-1.0159,-1.0168,-1.0182,-1.0186,-1.0189,-1.0194,-1.0224,-1.0231,-1.0161,-1.0161,-1.016,0,0,-0.9739,-0.9766,-0.9786,-0.9837,-0.9861,-0.9897,-0.9886,-0.9924,-0.9951,-0.9956,-1.0005,-1.0025,-1.0061,-1.0114,-1.0138,-1.0132,-1.0216,-1.0193,-1.0196,-1.0199,-1.0228,-1.0235,-1.0241,-1.0163,-1.0162,-1.0162,0,0,-0.9785,-0.9808,-0.9847,-0.987,-0.9906,-0.9922,-0.9931,-0.9968,-0.9981,-1.003,-1.0034,-1.0067,-1.013,-1.0156,-1.0177,-1.0231,-1.0233,-1.0242,-1.0264,-1.0293,-1.0298,-1.0303,-1.0322,-1.0329,-1.0247,-1.0247,-1.0247,0,-0.9799,-0.9852,-0.9866,-0.9904,-0.9927,-0.9932,-0.9971,-0.9994,-1.004,-1.0056,-1.0047,-1.0126,-1.0151,-1.0209,-1.0222,-1.024,-1.0251,-1.0238,-1.0296,-1.0301,-1.0306,-1.0325,-1.0332,-1.0248,-1.0248,-1.0248,-1.0248,0,-0.9868,-0.9905,-0.9932,-0.9975,-1.0,-1.0039,-1.0059,-1.0083,-1.009,-1.0107,-1.0156,-1.0186,-1.0228,-1.0243,-1.025,-1.0302,-1.0297,-1.0292,-1.0277,-1.0313,-1.0331,-1.0338,-1.0249,-1.0249,-1.0248,-1.0248,0,0,-0.992,-0.9969,-0.9978,-0.9997,-1.0037,-1.0066,-1.0104,-1.0144,-1.0164,-1.0196,-1.0229,-1.0282,-1.0277,-1.0301,-1.0312,-1.0337,-1.0377,-1.0329,-1.033,-1.0337,-1.0436,-1.044,-1.0447,-1.0379,-1.038,-1.0381,-1.0433,0,-0.997,-1.0037,-1.0051,-1.011,-1.0144,-1.0149,-1.0182,-1.021,-1.0227,-1.0259,-1.0278,-1.0315,-1.0306,-1.032,-1.0346,-1.0367,-1.0398,-1.0364,-1.0411,-1.0412,-1.0401,-1.0457,-1.0461,-1.0508,-1.044,-1.0441,-1.0442,0,-1.0037,-1.0069,-1.0131,-1.0164,-1.0179,-1.0209,-1.0246,-1.0276,-1.0308,-1.0318,-1.0344,-1.0352,-1.0393,-1.0375,-1.0432,-1.0409,-1.0429,-1.0442,-1.0444,-1.0449,-1.0429,-1.0463,-1.0524,-1.0531,-1.0453,-1.0452,-1.0452,0,-1.0068,-1.0126,-1.0171,-1.0187,-1.0227,-1.0248,-1.0266,-1.0297,-1.0319,-1.0352,-1.0367,-1.0404,-1.0424,-1.0453,-1.0471,-1.0457,-1.0526,-1.051,-1.0536,-1.0536,-1.0551,-1.055,-1.0615,-1.0564,-1.0564,-1.0563,-1.0563,0,-1.0123,-1.0161,-1.0185,-1.0212,-1.0255,-1.027,-1.0312,-1.033,-1.0356,-1.0388,-1.0395,-1.0424,-1.0445,-1.0478,-1.0492,-1.0536,-1.0546,-1.0555,-1.0559,-1.0555,-1.0554,-1.0568,-1.0566,-1.0565,-1.0565,-1.0565,-1.0564,0,-1.0165,-1.0183,-1.0231,-1.0265,-1.0274,-1.0304,-1.0333,-1.036,-1.0376,-1.0416,-1.0426,-1.0452,-1.0491,-1.051,-1.0559,-1.0568,-1.0619,-1.062,-1.0607,-1.0609,-1.0633,-1.0631,-1.071,-1.0722,-1.0663,-1.0663,-1.0664,0,-1.0199,-1.0228,-1.0264,-1.0284,-1.0302,-1.0336,-1.0359,-1.0374,-1.0398,-1.0435,-1.0458,-1.0497,-1.0528,-1.059,-1.0613,-1.065,-1.0653,-1.0678,-1.0659,-1.0653,-1.0653,-1.0651,-1.0654,-1.0682,-1.0682,-1.0683,-1.0683,0,-1.0257,-1.0264,-1.0295,-1.033,-1.0356,-1.0384,-1.0412,-1.0429,-1.0449,-1.0475,-1.0514,-1.0538,-1.0587,-1.0625,-1.0664,-1.0683,-1.0687,-1.0689,-1.0697,-1.0693,-1.0685,-1.0689,-1.0617,-1.0687,-1.0687,-1.0687,-1.0686,-1.0686,-1.0296,-1.0321,-1.035,-1.0385,-1.0407,-1.0433,-1.0459,-1.0478,-1.051,-1.055,-1.0558,-1.0599,-1.0629,-1.0681,-1.0701,-1.0734,-1.0729,-1.0741,-1.0744,-1.0746,-1.0747,-1.0679,-1.0741,-1.0741,-1.0741,-1.0741,-1.0741,0,-1.0354,-1.0372,-1.0404,-1.0442,-1.0469,-1.0468,-1.0499,-1.0522,-1.0558,-1.0585,-1.0616,-1.066,-1.0697,-1.0723,-1.076,-1.0781,-1.0784,-1.0791,-1.0789,-1.0794,-1.075,-1.0739,-1.0788,-1.0788,-1.0788,-1.0788,-1.0788,-1.0788,-1.0388,-1.043,-1.0441,-1.0494,-1.0513,-1.0552,-1.0569,-1.0593,-1.0615,-1.0663,-1.0693,-1.0709,-1.0736,-1.0776,-1.081,-1.0816,-1.083,-1.0837,-1.0843,-1.0802,-1.0797,-1.0792,-1.0782,-1.0839,-1.0839,-1.0885,-1.0885,-1.0885]},{"header":{"parameterUnit":"m.s-1","parameterCategory":1,"la1":30.2991,"la2":30.254,"lo1":-89.0895,"lo2":-89.0444,"dy":0.0017,"dx":0.0017,"nx":28,"ny":28,"refTime":"2025-08-29T21:00:00:Z","depth":0,"parameterNumber":3,"parameterNumberName":"V-component_of_WINDS"},"data":[0,0,0,0,0,0,0,0,0,0,0,0,0,0,0,0,0,0,0,0,0,0,0,0,0,0,0,0,0,0,0,0,0,0,0,0,0,0,0,0,0,0,0,0,0,0,0,0,0,0,0,0,0,0,0,0,0,0,-0.9332,-0.9332,0,-0.9346,-0.9347,-0.9347,-0.9352,-0.9352,-0.9352,-0.9352,-0.9366,-0.9366,-0.9367,0,0,0,0,0,0,0,0,0,0,0,0,0,-0.9309,-0.9309,-0.9332,-0.9332,-0.9332,-0.9346,-0.9347,-0.9347,-0.9352,-0.9352,-0.9352,-0.9352,-0.9366,-0.9366,-0.9367,0,0,0,0,0,0,0,0,0,0,0,0,0,-0.9321,-0.9309,-0.9332,-0.9337,-0.9337,-0.9346,-0.9347,-0.9347,-0.9352,-0.9352,-0.9352,-0.9352,-0.9366,-0.9366,-0.9367,-0.9372,0,0,-0.9369,-0.9369,0,0,0,0,0,0,0,0,-0.932,-0.9321,-0.9336,-0.9336,-0.9337,-0.9347,-0.9344,-0.9355,-0.9352,-0.9346,-0.9352,-0.9352,-0.936,-0.9361,-0.9364,-0.9373,-0.9373,-0.9369,-0.9369,-0.9369,-0.937,0,0,0,0,0,0,0,-0.9319,-0.9321,-0.9338,-0.9336,-0.9337,-0.9338,-0.934,-0.9346,-0.9353,-0.9347,-0.9347,-0.9349,-0.936,-0.9363,-0.9364,-0.9374,-0.9369,-0.9369,-0.937,-0.937,-0.9389,-0.9389,0,0,0,0,0,0,-0.9318,-0.932,-0.9337,-0.9338,-0.9328,-0.9339,-0.934,-0.9344,-0.9353,-0.9355,-0.9349,-0.9349,-0.9362,-0.9363,-0.9365,-0.9372,-0.9369,-0.937,-0.937,-0.9388,-0.9389,-0.9389,0,0,0,0,0,0,-0.9317,-0.9319,-0.9337,-0.9329,-0.9332,-0.9339,-0.9343,-0.9344,-0.9347,-0.9355,-0.9356,-0.9351,-0.9362,-0.9364,-0.937,-0.9372,-0.937,-0.9371,-0.9388,-0.9388,-0.9389,-0.9386,0,0,0,0,0,0,-0.9316,-0.9319,-0.9321,-0.9329,-0.9332,-0.9342,-0.9343,-0.9345,-0.9349,-0.9349,-0.9357,-0.9358,-0.9362,-0.9369,-0.9371,-0.9373,-0.9371,-0.9388,-0.9388,-0.9389,-0.9386,-0.9386,-0.9386,0,0,0,0,0,-0.9316,-0.9319,-0.9321,-0.9323,-0.9335,-0.9342,-0.9344,-0.9349,-0.9349,-0.9351,-0.9356,-0.9358,-0.9372,-0.937,-0.9372,-0.9374,-0.9388,-0.9388,-0.9389,-0.9385,-0.9386,-0.9386,0,0,0,0,0,0,-0.931,-0.932,-0.9322,-0.9328,-0.9334,-0.9343,-0.9346,-0.9348,-0.9354,-0.9354,-0.936,-0.9362,-0.9368,-0.9372,-0.937,-0.938,-0.938,-0.9381,-0.9377,-0.9377,-0.9377,-0.9376,-0.9372,0,0,0,0,0,-0.9309,-0.9315,-0.9323,-0.9328,-0.9331,-0.9338,-0.9341,-0.9345,-0.9351,-0.9353,-0.9359,-0.9365,-0.9371,-0.9374,-0.938,-0.9386,-0.9388,-0.9389,-0.9389,-0.9389,-0.9389,-0.9394,-0.9394,-0.939,-0.939,-0.939,0,0,-0.9308,-0.9314,-0.9317,-0.9327,-0.9332,-0.9338,-0.934,-0.9345,-0.935,-0.9354,-0.9361,-0.9365,-0.9372,-0.9379,-0.9382,-0.9383,-0.9391,-0.9389,-0.9389,-0.939,-0.9394,-0.9394,-0.9395,-0.939,-0.939,-0.939,0,0,-0.9309,-0.9314,-0.9319,-0.9324,-0.9332,-0.9337,-0.9338,-0.9347,-0.935,-0.9357,-0.9361,-0.9366,-0.9376,-0.9381,-0.9385,-0.9389,-0.9391,-0.9391,-0.9391,-0.9395,-0.9396,-0.9396,-0.9398,-0.9398,-0.9391,-0.9391,-0.9391,0,-0.9306,-0.9315,-0.9321,-0.9326,-0.9331,-0.9336,-0.9341,-0.9346,-0.9355,-0.9358,-0.9359,-0.9372,-0.9377,-0.9385,-0.9386,-0.9389,-0.9391,-0.939,-0.9395,-0.9395,-0.9396,-0.9398,-0.9398,-0.9391,-0.9391,-0.9391,-0.9391,0,-0.9311,-0.9317,-0.932,-0.933,-0.9335,-0.934,-0.9347,-0.9351,-0.9355,-0.936,-0.9367,-0.9374,-0.9381,-0.9384,-0.9387,-0.9393,-0.9393,-0.9394,-0.9394,-0.9396,-0.9398,-0.9398,-0.9391,-0.9391,-0.9391,-0.9391,0,0,-0.9307,-0.9321,-0.9322,-0.9327,-0.9337,-0.9342,-0.9348,-0.9356,-0.9359,-0.9366,-0.9371,-0.938,-0.9382,-0.9386,-0.939,-0.9394,-0.9397,-0.9395,-0.9395,-0.9395,-0.9404,-0.9403,-0.9404,-0.9399,-0.9399,-0.9399,-0.9404,0,-0.9309,-0.932,-0.9326,-0.9335,-0.9341,-0.9347,-0.9352,-0.9359,-0.9364,-0.937,-0.9375,-0.9382,-0.9383,-0.9386,-0.939,-0.9396,-0.9399,-0.9396,-0.9404,-0.9404,-0.9401,-0.9405,-0.9403,-0.9407,-0.9405,-0.9405,-0.9405,0,-0.9312,-0.9319,-0.9328,-0.9339,-0.9341,-0.9346,-0.9354,-0.936,-0.9368,-0.9372,-0.9377,-0.9382,-0.9389,-0.9389,-0.9398,-0.9396,-0.94,-0.9404,-0.9404,-0.9404,-0.9404,-0.9405,-0.9408,-0.9409,-0.9406,-0.9406,-0.9406,0,-0.9308,-0.932,-0.9328,-0.9332,-0.9344,-0.9347,-0.9352,-0.936,-0.9365,-0.9372,-0.9376,-0.9384,-0.9388,-0.9394,-0.94,-0.94,-0.941,-0.941,-0.9413,-0.9412,-0.9414,-0.9413,-0.9417,-0.9417,-0.9417,-0.9417,-0.9417,0,-0.9309,-0.9314,-0.9326,-0.933,-0.9337,-0.9345,-0.9351,-0.9357,-0.9364,-0.937,-0.9376,-0.9381,-0.9389,-0.9396,-0.9401,-0.9408,-0.941,-0.9413,-0.9414,-0.9412,-0.9412,-0.9415,-0.9414,-0.9417,-0.9417,-0.9417,-0.9417,0,-0.9305,-0.9313,-0.9322,-0.9333,-0.9336,-0.934,-0.935,-0.9355,-0.9361,-0.9368,-0.937,-0.938,-0.9388,-0.9395,-0.9405,-0.9409,-0.9416,-0.9418,-0.9414,-0.9414,-0.9416,-0.9416,-0.9421,-0.9423,-0.9422,-0.9422,-0.9422,0,-0.9305,-0.9309,-0.9322,-0.9326,-0.9332,-0.9339,-0.9344,-0.9352,-0.9357,-0.9368,-0.9371,-0.938,-0.9387,-0.94,-0.9407,-0.9416,-0.9417,-0.9419,-0.9418,-0.9417,-0.9417,-0.9417,-0.9417,-0.9418,-0.9418,-0.9418,-0.9418,0,-0.9304,-0.9308,-0.9316,-0.9325,-0.9331,-0.9338,-0.9346,-0.935,-0.9359,-0.9365,-0.9374,-0.9379,-0.9391,-0.9399,-0.9408,-0.9414,-0.9418,-0.9419,-0.942,-0.9417,-0.9414,-0.9416,-0.9413,-0.9418,-0.9418,-0.9418,-0.9418,-0.9418,-0.9302,-0.9306,-0.9316,-0.9324,-0.9331,-0.9339,-0.9344,-0.9351,-0.9359,-0.9369,-0.9373,-0.9382,-0.9391,-0.9404,-0.941,-0.9417,-0.9418,-0.9419,-0.9419,-0.9419,-0.9419,-0.9414,-0.9419,-0.9419,-0.9419,-0.9419,-0.9419,0,-0.9301,-0.9308,-0.9316,-0.9327,-0.9333,-0.9338,-0.9347,-0.9352,-0.936,-0.9368,-0.9376,-0.9386,-0.9394,-0.9403,-0.9413,-0.9417,-0.9419,-0.9419,-0.9418,-0.9419,-0.9418,-0.9416,-0.9417,-0.9417,-0.9417,-0.9417,-0.9417,-0.9417,-0.9301,-0.9309,-0.9315,-0.9327,-0.9334,-0.9343,-0.9347,-0.9354,-0.9361,-0.9373,-0.938,-0.9386,-0.9395,-0.9405,-0.9413,-0.9416,-0.9419,-0.9418,-0.9421,-0.9419,-0.9419,-0.9419,-0.9418,-0.9419,-0.9419,-0.9422,-0.9422,-0.9422]}]]